Regional Weather Roundup
Issued by NWS

Home | Current Version | Previous Version | Text Only | Print | Product List | Glossary Off
Versions: 1 2 3 4 5 6 7 8 9 10 11 12 13 14 15 16 17 18 19 20 21 22 23 24 25 26 27 28 29 30 31 32 33 34 35 36 37 38 39 40 41 42 43 44 45 46 47 48 49 50

000
ASUS43 KBIS 061620
RWRND

NORTH DAKOTA REGIONAL WEATHER ROUNDUP
NATIONAL WEATHER SERVICE BISMARCK ND
1000 AM CST FRI MAR 06 2015

NOTE: "FAIR" INDICATES FEW OR NO CLOUDS BELOW 12,000 FEET WITH NO
SIGNIFICANT WEATHER AND/OR OBSTRUCTIONS TO VISIBILITY.


NDZ001>003-009>011-017-061700-
NORTHWEST NORTH DAKOTA

CITY           SKY/WX    TMP DP  RH WIND       PRES   REMARKS
WILLISTON      CLOUDY    26  19  74 S7        30.05F WCI  18
MINOT          PTSUNNY   24  15  68 SW13      30.06R WCI  12
MINOT AFB      PTSUNNY   23  18  81 SW9       30.05R WCI  13
$$

NDZ018>021-031>035-040>046-061700-
SOUTHWEST NORTH DAKOTA

CITY           SKY/WX    TMP DP  RH WIND       PRES   REMARKS
BISMARCK       MOSUNNY   26  17  68 W6        30.13S WCI  19
DICKINSON      CLOUDY    34  19  54 SW8       30.05S
GARRISON         N/A     23  16  74 W6        30.09R WCI  16
HETTINGER ARPT CLOUDY    36  18  48 W6        30.09S
$$

NDZ004>008-012>016-024-026-027-054-061700-
NORTHEAST NORTH DAKOTA

CITY           SKY/WX    TMP DP  RH WIND       PRES   REMARKS
GRAND FORKS    MOSUNNY   25  14  63 NW9       30.07R WCI  15
GRND FRKS AFB  SUNNY     26  12  56 NW8       30.07R WCI  17
DEVILS LAKE    SUNNY     23  16  74 W8        30.06S WCI  14
$$

NDZ022-023-025-028>030-036>039-047>053-061700-
SOUTHEAST NORTH DAKOTA

CITY           SKY/WX    TMP DP  RH WIND       PRES   REMARKS
FARGO          SUNNY     26  14  60 NW12      30.09S WCI  16
JAMESTOWN      SUNNY     26  16  65 NW9       30.08R WCI  17
$$




USA.gov is the U.S. government's official web portal to all federal, state and local government web resources and services.